Date,TemperatureHighF,TemperatureAvgF,TemperatureLowF,DewpointHighF,DewpointAvgF,DewpointLowF,HumidityHigh,HumidityAvg,HumidityLow,PressureMaxIn,PressureMinIn,WindSpeedMaxMPH,WindSpeedAvgMPH,GustSpeedMaxMPH,PrecipitationSumIn
2013-1-1,46,40,36,32,28,27,66,63,57,29.83,29.24,10,5,17,0.00
2013-1-2,52,46,40,41,35,28,67,65,62,29.95,29.83,12,3,15,0.12
2013-1-3,53,51,49,41,40,37,65,64,63,30.27,29.95,13,5,14,0.00
2013-1-4,52,50,47,39,37,36,63,62,59,30.36,30.27,9,4,13,0.00
2013-1-5,51,49,46,37,36,34,63,61,58,30.36,30.18,10,3,13,0.00
2013-1-6,49,45,41,36,34,30,65,63,59,30.36,30.09,8,1,9,0.00
2013-1-7,49,48,47,37,37,36,65,64,61,30.09,29.95,4,0,6,0.38
2013-1-8,51,47,40,39,36,30,66,64,63,30.07,29.92,7,1,14,0.12
2013-1-9,47,40,36,36,30,27,66,65,63,30.09,29.98,6,1,8,0.09
2013-1-10,42,39,35,32,29,25,66,64,63,29.98,29.89,6,0,6,0.04
2013-1-11,42,39,36,30,28,27,65,63,62,29.95,29.92,1,0,5,0.00
2013-1-12,42,38,35,28,26,23,63,60,56,30.03,29.92,8,2,10,0.00
2013-1-13,38,36,35,27,24,23,62,61,58,30.07,29.92,6,1,8,0.08
2013-1-14,41,36,33,28,25,23,63,62,61,29.92,29.68,6,1,7,0.04
2013-1-15,37,33,28,25,22,16,63,62,61,29.89,29.77,3,0,7,0.04
2013-1-16,34,31,28,23,20,16,63,62,62,29.92,29.80,4,0,5,0.00
2013-1-17,37,34,32,23,21,16,62,57,52,29.98,29.80,7,2,12,0.00
2013-1-18,37,35,33,23,19,16,61,51,42,29.80,29.56,16,8,17,0.04
2013-1-19,39,35,34,25,23,21,61,59,56,29.68,29.56,13,4,15,0.17
2013-1-20,36,35,34,23,21,19,59,54,49,29.68,29.50,11,5,13,0.00
2013-1-21,36,35,34,23,23,19,61,60,55,29.53,29.47,17,8,23,0.17
2013-1-22,37,36,35,25,24,23,61,61,60,29.80,29.50,14,5,20,0.00
2013-1-23,38,36,33,25,23,21,62,60,58,29.92,29.80,6,1,6,0.00
2013-1-24,39,36,34,25,23,21,60,57,53,30.03,29.92,6,1,7,0.00
2013-1-25,36,36,34,25,23,21,61,58,52,29.92,29.36,8,2,8,0.33
2013-1-26,44,38,34,32,26,23,62,61,58,29.53,28.97,13,3,13,0.21
2013-1-27,47,41,38,34,29,25,60,60,58,29.15,28.80,20,8,21,0.12
2013-1-28,45,42,38,32,28,27,60,58,54,29.33,28.88,17,8,22,0.21
2013-1-29,50,44,42,36,31,30,60,59,57,29.33,28.94,22,6,23,0.21
2013-1-30,44,42,38,30,29,27,60,58,57,29.56,29.09,17,8,23,0.08
2013-1-31,42,40,39,30,28,27,60,59,58,29.59,29.21,14,4,15,0.21
2013-2-1,43,38,34,30,26,21,61,60,59,29.77,29.33,11,3,15,0.04
2013-2-2,42,35,29,27,21,16,62,58,49,30.12,29.77,6,1,9,0.00
2013-2-3,50,45,37,34,30,23,58,55,49,29.95,29.42,14,6,16,0.00
2013-2-4,49,38,32,34,25,21,61,57,49,29.50,29.30,17,7,20,0.12
2013-2-5,44,37,32,30,25,21,62,60,58,29.50,29.03,23,5,23,0.04
2013-2-6,45,38,32,27,22,18,58,52,44,30.03,29.53,16,4,17,0.00
2013-2-7,42,36,30,25,20,14,56,52,48,30.03,29.95,6,1,8,0.00
2013-2-8,47,39,32,28,24,21,60,53,44,30.09,30.01,10,2,13,0.00
2013-2-9,42,39,38,28,27,27,60,60,59,30.07,29.77,5,1,6,0.00
2013-2-10,40,38,37,27,25,23,60,57,51,29.77,29.42,10,4,13,0.00
2013-2-11,43,38,37,25,21,16,57,48,40,29.92,29.47,10,5,13,0.00
2013-2-12,39,38,36,21,18,16,50,45,42,30.03,29.92,10,5,12,0.00
2013-2-13,42,36,33,30,22,16,60,55,45,30.03,29.47,8,3,10,0.38
2013-2-14,49,44,40,36,31,28,60,59,56,29.74,29.50,9,3,14,0.04
2013-2-15,53,43,36,36,29,23,60,57,49,30.03,29.74,8,2,9,0.00
2013-2-16,48,44,36,32,30,23,59,55,52,30.07,30.03,2,0,3,0.00
2013-2-17,51,44,34,34,28,21,57,52,42,30.07,29.98,3,0,6,0.00
2013-2-18,48,37,31,30,23,18,60,56,49,30.07,30.01,3,0,4,0.00
2013-2-19,46,38,30,28,23,16,59,55,48,30.09,30.03,6,1,7,0.00
2013-2-20,43,40,36,28,24,18,58,51,45,30.27,30.09,13,5,14,0.00
2013-2-21,38,36,34,18,16,14,46,42,39,30.27,30.24,13,6,13,0.00
2013-2-22,38,36,34,16,14,12,42,40,39,30.27,30.21,10,2,11,0.00
2013-2-23,43,37,34,23,17,12,60,45,33,30.30,30.21,6,2,8,0.00
2013-2-24,42,37,33,28,24,21,61,60,58,30.39,30.30,6,2,10,0.00
2013-2-25,44,38,34,30,25,21,61,59,56,30.54,30.39,8,2,8,0.00
2013-2-26,48,40,34,32,26,23,60,57,48,30.60,30.54,6,2,9,0.00
2013-2-27,49,39,32,32,25,19,60,56,49,30.60,30.48,7,2,7,0.00
2013-2-28,49,40,32,32,25,18,60,56,49,30.51,30.42,5,1,6,0.00
2013-3-1,50,42,34,28,24,19,54,47,38,30.48,30.36,6,2,9,0.00
2013-3-2,59,47,33,34,28,19,57,47,39,30.36,30.15,8,3,9,0.00
2013-3-3,51,46,43,32,28,25,53,48,42,30.15,30.03,6,1,6,0.00
2013-3-4,48,42,35,25,23,19,54,46,38,30.03,29.71,6,1,8,0.00
2013-3-5,52,40,32,30,23,19,58,51,38,29.71,29.62,5,1,6,0.00
2013-3-6,42,41,39,27,25,23,56,52,50,29.71,29.65,11,3,11,0.00
2013-3-7,43,41,40,30,28,25,59,58,55,29.65,29.56,13,6,14,0.00
2013-3-8,40,40,38,27,27,25,59,58,57,29.71,29.56,13,6,16,0.00
2013-3-9,39,38,37,27,24,18,59,57,44,29.89,29.71,14,7,18,0.00
2013-3-10,38,34,30,23,18,14,59,52,40,30.07,29.89,19,6,19,0.00
2013-3-11,36,30,26,21,15,10,59,54,47,30.09,30.07,11,4,17,0.00
2013-3-12,46,36,25,25,17,9,53,47,41,30.07,29.86,7,2,9,0.00
2013-3-13,47,37,32,23,16,12,51,42,30,29.92,29.83,10,2,11,0.00
2013-3-14,45,39,30,27,22,10,59,49,42,29.92,29.56,7,2,10,0.00
2013-3-15,49,41,35,34,28,23,59,58,55,29.56,29.36,8,3,13,0.00
2013-3-16,39,36,34,27,24,21,60,59,58,29.39,29.18,8,3,17,0.00
2013-3-17,41,38,33,28,25,21,60,59,58,29.27,29.12,9,3,12,0.00
2013-3-18,39,35,33,25,23,21,60,59,58,29.53,29.39,16,7,17,0.00
2013-3-19,36,35,33,23,22,21,60,60,59,29.65,29.50,15,6,18,0.00
2013-3-20,41,36,34,25,23,19,60,57,51,30.03,29.65,12,5,14,0.00
2013-3-21,43,36,31,23,19,16,58,49,39,30.07,30.01,12,6,16,0.00
2013-3-22,37,36,34,21,18,16,58,48,43,30.03,29.98,20,10,23,0.00
2013-3-23,36,35,34,19,16,14,53,45,40,30.15,30.01,18,10,24,0.00
2013-3-24,38,36,34,16,14,12,42,40,35,30.24,30.15,17,10,20,0.00
2013-3-25,38,36,34,16,15,14,44,41,38,30.27,30.18,13,6,14,0.00
2013-3-26,38,35,33,23,19,14,57,51,40,30.18,30.09,13,5,14,0.00
2013-3-27,40,35,32,25,21,16,59,56,50,30.09,30.03,13,4,15,0.00
2013-3-28,43,37,33,27,21,18,60,52,41,30.07,29.98,8,3,11,0.00
2013-3-29,43,36,32,28,21,18,56,52,49,29.98,29.89,10,3,10,0.00
2013-3-30,45,36,31,21,18,14,53,47,38,29.98,29.92,6,2,8,0.00
2013-3-31,45,36,29,21,15,12,54,42,31,29.98,29.95,9,3,12,0.00
2013-4-1,45,37,30,16,13,10,48,37,30,30.03,29.95,11,4,11,0.00
2013-4-2,49,40,33,21,17,12,49,39,29,30.18,30.03,8,3,10,0.00
2013-4-3,49,40,32,25,18,16,52,41,30,30.24,30.18,10,4,12,0.00
2013-4-4,49,42,36,23,21,16,49,42,35,30.21,30.15,10,4,12,0.00
2013-4-5,48,40,32,27,22,16,58,48,34,30.21,30.15,8,3,10,0.00
2013-4-6,57,42,30,28,20,12,53,41,28,30.21,30.09,13,3,13,0.00
2013-4-7,43,39,37,25,22,18,54,50,43,30.12,29.95,8,3,11,0.00
2013-4-8,47,40,36,23,19,14,53,42,31,29.95,29.71,11,5,15,0.00
2013-4-9,48,41,36,21,18,14,48,38,30,29.71,29.62,12,5,14,0.00
2013-4-10,42,40,37,28,24,21,58,53,48,29.68,29.56,10,3,10,0.00
2013-4-11,47,41,37,28,24,21,58,50,43,29.56,29.42,11,3,11,0.00
2013-4-12,48,42,38,27,24,21,53,48,41,29.59,29.39,8,3,9,0.00
2013-4-13,56,47,40,32,27,25,55,46,33,29.71,29.44,7,2,10,0.00
2013-4-14,62,54,49,37,34,30,51,45,35,29.44,29.36,21,7,28,0.00
2013-4-15,59,52,48,37,33,30,56,47,35,29.68,29.44,17,7,24,0.00
2013-4-16,58,50,44,34,30,23,56,45,36,29.77,29.36,26,10,28,0.00
2013-4-17,52,46,39,36,30,23,57,54,44,29.80,29.09,15,4,22,0.00
2013-4-18,57,50,44,34,30,27,56,47,37,29.83,29.06,17,7,24,0.00
2013-4-19,58,48,38,28,24,21,50,39,29,30.36,29.83,7,2,10,0.00
2013-4-20,61,49,39,32,26,21,50,40,32,30.39,30.12,15,5,20,0.00
2013-4-21,57,49,42,32,28,23,48,42,34,30.12,29.80,15,6,15,0.00
2013-4-22,59,49,41,34,28,25,52,44,34,29.86,29.56,18,6,22,0.00
2013-4-23,60,52,46,32,28,23,51,40,30,30.03,29.71,15,6,23,0.00
2013-4-24,60,51,45,41,32,23,57,47,35,30.21,29.89,11,3,14,0.00
2013-4-25,56,48,42,32,26,21,49,42,36,30.21,30.01,12,3,12,0.00
2013-4-26,60,44,36,36,26,21,58,50,32,30.03,29.86,10,3,14,0.00
2013-4-27,57,46,38,37,26,19,58,45,27,30.12,29.98,11,3,13,0.00
2013-4-28,59,48,40,32,26,21,51,42,32,29.98,29.62,14,7,17,0.00
2013-4-29,60,48,40,28,24,19,51,38,25,30.09,29.62,19,7,22,0.00
2013-4-30,64,48,36,30,22,18,50,36,24,30.30,30.09,7,3,10,0.00
2013-5-1,60,50,42,36,25,21,48,38,27,30.27,30.09,12,5,14,0.00
2013-5-2,61,49,37,32,26,21,50,39,29,30.27,30.01,12,3,14,0.00
2013-5-3,56,51,43,37,33,28,55,49,43,30.01,29.68,15,5,17,0.00
2013-5-4,59,48,37,32,27,23,56,45,30,29.89,29.71,14,6,18,0.00
2013-5-5,69,56,46,39,34,28,50,43,33,30.03,29.89,12,5,15,0.00
2013-5-6,64,55,48,37,34,30,51,46,38,30.03,29.98,7,3,12,0.00
2013-5-7,69,54,42,39,32,27,54,42,30,30.07,29.86,10,3,14,0.00
2013-5-8,54,50,47,37,33,27,56,51,40,29.86,29.50,11,5,17,0.00
2013-5-9,58,49,43,34,31,28,57,50,37,29.53,29.36,10,4,13,0.00
2013-5-10,65,51,44,46,34,28,57,52,44,29.62,29.39,10,4,14,0.00
2013-5-11,55,48,43,36,31,27,54,50,44,29.71,29.47,12,5,17,0.00
2013-5-12,56,49,42,36,31,27,55,49,41,29.77,29.53,14,4,14,0.00
2013-5-13,55,45,36,37,29,23,58,52,45,29.59,29.42,17,7,23,0.00
2013-5-14,60,49,41,32,28,25,53,44,33,29.42,29.33,18,6,20,0.00
2013-5-15,56,46,39,36,28,23,57,48,37,29.42,29.30,12,3,12,0.00
2013-5-16,60,48,37,39,31,25,58,51,36,29.68,29.39,8,3,10,0.00
2013-5-17,65,52,41,37,30,27,55,43,30,29.83,29.68,6,2,9,0.00
2013-5-18,55,52,49,39,34,28,56,51,41,29.80,29.68,12,3,15,0.00
2013-5-19,57,51,48,41,36,34,56,55,54,29.92,29.80,6,2,9,0.00
2013-5-20,74,60,51,54,43,36,55,52,44,29.98,29.83,6,1,10,0.00
2013-5-21,62,54,46,43,36,30,57,51,44,30.03,29.95,8,2,8,0.00
2013-5-22,67,54,43,36,28,19,51,37,24,30.03,29.92,12,3,16,0.00
2013-5-23,58,48,39,25,21,19,44,34,26,29.95,29.86,11,4,17,0.00
2013-5-24,59,50,43,30,26,19,50,38,28,30.15,29.86,16,5,17,0.00
2013-5-25,70,55,40,37,28,21,54,37,23,30.15,30.03,11,3,12,0.00
2013-5-26,71,56,43,39,30,23,45,36,28,30.07,29.74,7,3,10,0.00
2013-5-27,56,52,49,32,30,25,45,41,38,29.74,29.44,10,5,13,0.00
2013-5-28,59,53,47,34,32,28,50,44,37,29.74,29.50,13,3,13,0.00
2013-5-29,64,55,45,37,33,28,51,43,37,29.86,29.77,6,2,9,0.00
2013-5-30,64,59,52,36,33,30,47,37,34,30.01,29.83,8,3,11,0.00
2013-5-31,76,60,48,43,35,27,52,39,28,30.09,29.98,12,4,14,0.00
2013-6-1,70,57,48,36,29,23,43,34,25,30.21,30.09,12,4,15,0.00
2013-6-2,70,56,43,34,28,23,48,35,23,30.36,30.21,9,3,10,0.00
2013-6-3,73,60,47,43,35,28,49,39,30,30.42,30.36,6,2,10,0.00
2013-6-4,70,60,53,37,34,32,47,37,27,30.42,30.27,8,3,12,0.00
2013-6-5,64,55,50,39,34,32,52,46,36,30.24,30.12,8,3,11,0.00
2013-6-6,70,58,50,43,36,34,52,44,33,30.18,30.12,9,3,11,0.00
2013-6-7,63,55,50,37,35,32,51,45,38,30.27,30.18,10,3,10,0.00
2013-6-8,71,58,47,41,35,30,51,43,31,30.27,30.07,10,3,12,0.00
2013-6-9,64,55,50,37,35,34,53,46,37,30.09,29.95,10,4,12,0.00
2013-6-10,61,54,50,37,34,32,51,46,39,29.98,29.86,8,3,10,0.00
2013-6-11,65,56,48,39,37,32,53,48,34,29.89,29.68,6,3,8,0.00
2013-6-12,67,59,52,48,41,36,55,51,46,29.65,29.53,10,3,12,0.00
2013-6-13,73,59,48,41,34,28,52,40,28,29.71,29.50,10,4,14,0.00
2013-6-14,70,58,47,39,34,30,54,40,32,29.77,29.56,11,4,13,0.00
2013-6-15,60,54,50,43,37,34,55,51,43,29.56,29.42,17,5,18,0.00
2013-6-16,72,59,48,43,36,32,54,44,30,29.92,29.50,7,3,9,0.00
2013-6-17,68,59,52,43,38,36,51,45,36,30.01,29.92,6,3,9,0.00
2013-6-18,68,61,55,43,39,37,50,45,37,29.98,29.86,6,2,8,0.00
2013-6-19,74,61,53,41,36,30,50,38,25,29.98,29.89,13,4,14,0.00
2013-6-20,72,61,52,41,36,30,46,40,32,29.98,29.74,6,2,7,0.00
2013-6-21,72,63,58,43,39,34,48,40,33,29.74,29.56,8,2,10,0.00
2013-6-22,66,58,53,43,38,34,50,46,38,29.56,29.27,12,3,12,0.00
2013-6-23,64,57,50,45,38,32,53,48,41,29.86,29.33,9,4,13,0.00
2013-6-24,69,58,51,37,33,28,49,39,30,30.15,29.86,8,3,9,0.00
2013-6-25,69,58,47,39,33,28,47,39,32,30.30,30.18,8,2,10,0.00
2013-6-26,69,59,51,37,34,32,50,40,28,30.33,30.30,6,2,8,0.00
2013-6-27,65,58,50,43,38,32,50,46,43,30.33,30.03,8,3,10,0.00
2013-6-28,67,59,52,48,40,32,54,49,42,30.03,29.83,15,5,15,0.00
2013-6-29,66,58,50,39,36,32,49,43,35,30.07,29.98,10,4,11,0.00
2013-6-30,73,61,53,43,38,32,49,43,34,30.03,29.77,17,6,21,0.00
2013-7-1,68,58,50,37,33,27,49,39,29,29.83,29.77,11,4,14,0.00
2013-7-2,57,54,50,41,36,28,54,49,41,29.83,29.42,8,1,13,0.00
2013-7-3,67,60,55,48,42,37,54,50,44,29.74,29.42,9,3,10,0.00
2013-7-4,66,61,55,48,42,36,53,49,44,30.07,29.68,15,5,18,0.00
2013-7-5,72,62,54,43,39,36,50,43,33,30.27,30.07,11,4,14,0.00
2013-7-6,78,65,52,45,40,34,51,40,28,30.30,30.18,10,2,13,0.00
2013-7-7,78,66,56,46,42,37,50,41,29,30.51,30.30,8,3,10,0.00
2013-7-8,71,63,56,46,42,39,52,46,39,30.54,30.39,5,2,8,0.00
2013-7-9,86,69,58,52,45,39,51,41,29,30.39,30.21,9,3,13,0.00
2013-7-10,67,60,56,43,40,37,50,47,40,30.33,30.27,6,3,9,0.00
2013-7-11,73,63,56,48,42,37,52,46,38,30.27,30.15,7,3,8,0.00
2013-7-12,84,71,56,52,45,37,52,40,29,30.18,30.07,10,3,11,0.00
2013-7-13,81,65,57,50,43,39,49,45,32,30.24,30.12,9,4,12,0.00
2013-7-14,77,65,56,45,40,34,52,40,30,30.24,30.07,16,4,16,0.00
2013-7-15,73,64,55,43,40,34,49,41,33,30.12,30.07,11,5,15,0.00
2013-7-16,77,69,62,48,43,39,48,40,32,30.15,30.09,10,4,11,0.00
2013-7-17,80,68,57,48,42,39,49,39,28,30.21,30.15,12,2,12,0.00
2013-7-18,84,72,62,50,46,41,47,39,30,30.27,30.18,8,3,13,0.00
2013-7-19,77,66,59,45,42,39,50,41,31,30.30,30.24,9,3,11,0.00
2013-7-20,74,63,58,46,42,41,52,46,36,30.27,30.18,9,4,15,0.00
2013-7-21,70,62,59,45,42,39,51,46,38,30.21,30.07,10,4,16,0.00
2013-7-22,67,61,58,48,44,41,53,51,47,30.07,29.92,8,4,10,0.00
2013-7-23,70,63,60,52,45,43,53,52,50,29.92,29.80,8,3,9,0.00
2013-7-24,74,66,60,54,47,43,54,50,46,29.83,29.80,6,2,8,0.00
2013-7-25,65,62,59,48,44,41,53,52,51,29.83,29.74,6,2,9,0.00
2013-7-26,79,66,58,54,46,43,54,48,38,29.80,29.74,8,1,9,0.00
2013-7-27,76,64,55,50,43,39,52,47,36,29.80,29.62,10,2,11,0.00
2013-7-28,62,60,57,46,44,41,54,53,52,29.62,29.47,8,2,8,0.00
2013-7-29,71,61,55,52,44,39,55,53,50,29.68,29.56,7,1,14,0.00
2013-7-30,71,62,53,48,42,37,54,48,36,29.74,29.65,8,2,14,0.00
2013-7-31,73,62,53,45,40,37,53,45,34,29.80,29.74,9,2,11,0.00
2013-8-1,68,63,58,50,46,41,54,53,51,29.74,29.56,7,2,10,0.00
2013-8-2,74,66,61,48,44,39,54,45,34,29.56,29.50,13,4,16,0.00
2013-8-3,70,63,57,41,39,36,50,42,33,29.80,29.53,12,5,18,0.00
2013-8-4,72,63,54,45,39,37,51,42,33,29.83,29.80,11,3,13,0.00
2013-8-5,66,60,56,43,40,37,49,47,44,29.83,29.71,4,1,6,0.00
2013-8-6,68,59,50,39,36,34,52,42,34,29.92,29.80,7,2,10,0.00
2013-8-7,72,62,52,45,39,34,51,43,34,30.01,29.92,4,0,6,0.00
2013-8-8,74,62,56,46,42,37,54,48,34,30.01,29.86,6,1,7,0.00
2013-8-9,71,62,55,48,42,36,54,47,38,30.03,29.80,10,3,10,0.00
2013-8-10,67,60,53,39,37,34,48,42,36,30.03,29.92,8,3,11,0.00
2013-8-11,68,59,53,41,37,34,50,43,33,29.92,29.77,11,4,13,0.00
2013-8-12,71,59,52,43,38,34,54,47,32,29.95,29.80,6,2,11,0.00
2013-8-13,67,59,50,43,37,34,55,45,34,30.07,29.95,7,2,9,0.00
2013-8-14,72,63,53,45,40,34,50,43,35,30.07,29.89,6,1,8,0.00
2013-8-15,70,64,60,50,45,43,52,49,45,29.89,29.68,8,2,14,0.00
2013-8-16,71,63,54,46,41,37,52,45,36,29.80,29.68,10,2,12,0.00
2013-8-17,69,61,55,46,41,36,49,46,40,29.80,29.33,13,3,15,0.00
2013-8-18,66,59,54,39,36,34,49,42,36,29.74,29.42,10,4,15,0.00
2013-8-19,68,60,54,41,37,34,48,42,34,30.09,29.74,13,4,16,0.00
2013-8-20,70,60,54,43,39,36,50,45,36,30.15,30.09,7,1,10,0.00
2013-8-21,72,64,58,48,44,39,52,47,40,30.07,29.95,10,1,11,0.00
2013-8-22,65,60,57,46,42,39,53,50,48,30.07,29.95,7,2,10,0.00
2013-8-23,69,62,56,48,44,39,53,50,46,29.95,29.80,4,0,5,0.00
2013-8-24,68,61,58,46,42,39,51,48,43,29.92,29.83,3,1,5,0.00
2013-8-25,70,62,56,48,42,37,51,48,43,30.09,29.92,6,1,6,0.00
2013-8-26,70,62,56,46,42,39,52,48,43,30.12,30.01,4,1,6,0.00
2013-8-27,72,62,54,46,42,37,51,46,39,30.15,30.01,6,2,11,0.00
2013-8-28,67,60,55,45,39,34,50,45,39,30.15,30.03,7,3,8,0.00
2013-8-29,68,61,54,45,40,34,49,45,39,30.03,29.92,8,3,13,0.00
2013-8-30,67,60,52,45,40,30,50,46,41,30.01,29.77,16,4,16,0.00
2013-8-31,65,56,49,37,32,27,48,40,29,30.18,30.01,13,3,15,0.00
2013-9-1,61,57,54,39,36,32,48,44,41,30.18,30.01,17,6,20,0.00
2013-9-2,71,64,59,46,43,39,50,46,40,30.15,29.98,13,6,15,0.00
2013-9-3,73,65,59,46,42,39,50,44,35,30.15,30.09,8,3,14,0.00
2013-9-4,70,62,56,43,38,34,49,41,33,30.12,29.86,11,2,12,0.00
2013-9-5,69,60,54,37,35,30,47,39,27,29.86,29.77,6,2,8,0.00
2013-9-6,60,54,48,34,34,32,56,46,37,29.86,29.83,8,2,10,0.00
2013-9-7,60,54,48,43,38,34,56,53,50,29.89,29.68,10,4,15,0.00
2013-9-8,62,54,46,37,34,30,53,47,38,29.92,29.86,6,1,8,0.00
2013-9-9,64,55,48,43,36,32,52,48,43,30.09,29.89,6,1,11,0.00
2013-9-10,66,58,50,37,34,32,48,40,34,30.15,30.09,13,2,16,0.00
2013-9-11,61,57,53,43,38,34,51,49,43,30.15,30.01,6,1,8,0.00
2013-9-12,69,61,56,43,42,39,52,49,39,30.01,29.80,10,2,11,0.00
2013-9-13,57,53,50,41,37,34,55,54,52,30.03,29.89,6,1,7,0.00
2013-9-14,62,53,46,43,36,32,56,51,43,29.98,29.86,6,1,12,0.00
2013-9-15,60,53,45,43,35,28,53,49,43,29.86,29.12,24,7,26,0.00
2013-9-16,58,49,43,36,30,27,52,48,40,29.27,29.21,13,4,14,0.00
2013-9-17,58,51,46,36,31,28,50,46,39,29.33,29.24,10,3,14,0.00
2013-9-18,60,51,43,36,30,27,52,45,36,29.68,29.36,12,2,17,0.00
2013-9-19,54,49,46,37,33,28,55,53,49,29.68,29.47,8,1,8,0.00
2013-9-20,60,53,46,43,37,30,56,53,49,29.95,29.71,9,2,11,0.00
2013-9-21,62,58,51,43,40,34,52,50,49,30.01,29.95,9,1,9,0.00
2013-9-22,69,64,58,46,43,41,51,47,39,30.18,30.01,13,3,15,0.00
2013-9-23,66,60,53,45,41,37,53,50,47,30.18,30.03,5,0,6,0.00
2013-9-24,62,58,56,43,41,39,53,51,49,30.03,29.89,6,2,8,0.00
2013-9-25,56,54,49,41,37,32,53,51,47,29.98,29.83,10,2,10,0.00
2013-9-26,59,53,48,37,35,30,52,48,41,30.03,29.98,10,2,10,0.00
2013-9-27,61,56,53,43,39,36,52,51,48,30.01,29.89,3,0,4,0.00
2013-9-28,66,57,51,45,39,36,53,49,43,29.86,29.80,7,1,8,0.00
2013-9-29,63,56,51,39,36,34,51,46,37,29.89,29.83,9,3,10,0.00
2013-9-30,61,56,53,39,37,34,50,47,43,29.89,29.77,9,4,10,0.00
2013-10-1,60,55,52,36,34,32,47,44,38,29.89,29.80,9,5,12,0.00
2013-10-2,58,56,54,41,38,36,53,50,45,29.80,29.71,10,3,12,0.00
2013-10-3,64,58,55,46,42,39,55,54,52,29.74,29.50,8,2,10,0.00
2013-10-4,62,58,54,46,42,37,57,55,53,29.74,29.47,5,1,9,0.00
2013-10-5,60,56,52,43,40,37,55,53,50,30.01,29.74,8,1,9,0.00
2013-10-6,63,59,54,45,42,37,53,51,49,30.01,29.95,6,2,10,0.00
2013-10-7,65,61,59,45,43,41,52,49,46,29.98,29.92,13,3,13,0.00
2013-10-8,61,57,52,45,41,36,54,53,51,30.07,29.92,10,3,13,0.00
2013-10-9,55,51,44,36,30,21,53,45,37,30.03,29.80,23,5,23,0.00
2013-10-10,55,47,42,28,24,21,46,40,33,30.33,30.07,9,2,15,0.00
2013-10-11,54,49,44,30,26,21,43,41,39,30.42,30.33,9,3,10,0.00
2013-10-12,59,51,47,36,32,27,50,46,39,30.39,30.21,14,3,14,0.00
2013-10-13,56,51,48,36,33,30,55,49,43,30.21,29.98,10,4,12,0.00
2013-10-14,54,51,49,39,36,34,56,55,54,29.98,29.86,8,3,9,0.00
2013-10-15,54,50,47,37,34,32,55,53,51,29.92,29.83,7,2,8,0.00
2013-10-16,54,49,44,36,33,28,55,53,50,29.92,29.53,10,3,10,0.00
2013-10-17,52,49,47,37,34,32,57,56,55,29.92,29.56,6,2,9,0.00
2013-10-18,53,51,48,37,35,34,57,55,53,29.95,29.68,7,4,10,0.00
2013-10-19,56,53,51,41,38,37,62,56,55,29.65,29.42,7,2,9,0.00
2013-10-20,57,53,50,45,39,37,64,59,53,29.44,29.39,6,2,7,0.00
2013-10-21,56,53,50,43,39,37,62,59,56,29.47,29.24,8,1,10,0.00
2013-10-22,58,56,53,45,42,39,63,60,56,29.24,29.09,5,1,9,0.00
2013-10-23,56,52,46,43,39,30,64,58,52,29.50,28.97,13,3,16,0.00
2013-10-24,55,49,46,37,33,30,55,52,47,29.86,29.50,11,3,12,0.00
2013-10-25,57,53,49,41,37,34,56,54,52,29.80,29.27,10,3,13,0.00
2013-10-26,55,52,46,39,36,32,56,53,49,29.42,29.12,12,3,14,0.00
2013-10-27,56,50,45,37,33,30,56,52,46,29.15,28.83,17,6,27,0.00
2013-10-28,54,48,45,37,34,30,57,55,53,29.30,28.85,14,4,14,0.00
2013-10-29,55,46,42,34,29,27,55,51,42,29.80,29.30,10,3,15,0.00
2013-10-30,54,46,39,36,30,23,56,52,46,29.89,29.56,11,3,15,0.00
2013-10-31,57,47,44,36,31,28,57,52,41,29.77,29.56,17,5,17,0.00
2013-11-1,54,46,40,37,31,25,58,54,50,29.56,29.50,14,5,17,0.00
2013-11-2,47,42,37,32,28,23,57,55,52,29.50,28.83,13,3,21,0.00
2013-11-3,51,44,36,30,26,21,55,48,38,29.24,28.88,11,4,15,0.00
2013-11-4,51,40,34,30,23,19,55,50,40,29.33,29.18,7,2,8,0.00
2013-11-5,43,38,33,27,23,19,56,54,51,29.30,29.15,6,2,6,0.00
2013-11-6,46,40,36,30,26,23,57,55,53,29.33,29.21,6,2,7,0.00
2013-11-7,49,43,37,30,27,23,57,52,43,29.42,29.33,22,7,25,0.00
2013-11-8,50,42,37,34,29,25,62,57,54,29.47,29.42,10,3,15,0.00
2013-11-9,46,38,33,32,26,21,64,60,56,29.56,29.44,7,2,10,0.00
2013-11-10,48,39,32,30,24,16,58,54,49,30.03,29.59,5,2,8,0.00
2013-11-11,54,46,41,37,32,25,56,55,51,29.95,29.74,4,0,8,0.00
2013-11-12,50,44,40,34,29,25,57,54,49,30.24,29.92,0,0,0,0.00
2013-11-13,49,46,40,32,29,25,56,51,46,30.27,29.71,0,0,0,0.00
2013-11-14,50,44,40,30,24,19,52,45,38,30.33,29.68,0,0,0,0.00
2013-11-15,52,47,39,34,30,21,52,50,47,30.33,30.21,0,0,0,0.00
2013-11-16,55,50,44,36,33,28,52,49,46,30.21,30.07,0,0,0,0.00
2013-11-17,48,42,36,30,26,21,55,53,48,30.24,29.83,0,0,0,0.00
2013-11-18,47,40,33,32,26,19,59,57,55,29.83,29.68,0,0,0,0.00
2013-11-19,41,35,28,25,20,14,57,52,45,29.92,29.50,0,0,0,0.00
2013-11-20,43,39,33,28,25,21,59,56,50,29.68,29.30,0,0,0,0.00
2013-11-21,42,38,34,23,19,16,50,46,42,30.03,29.68,0,0,0,0.00
2013-11-22,40,34,28,21,16,12,53,49,43,30.12,30.03,0,0,0,0.00
2013-11-23,45,38,34,27,22,19,55,51,48,30.27,30.12,0,0,0,0.00
2013-11-24,44,38,32,28,22,18,56,52,49,30.51,30.27,0,0,0,0.00
2013-11-25,41,36,30,25,20,16,56,54,51,30.57,30.51,0,0,0,0.00
2013-11-26,49,44,35,34,30,21,58,55,53,30.54,30.33,0,0,0,0.00
2013-11-27,53,49,46,37,35,30,60,57,55,30.39,30.30,0,0,0,0.00
2013-11-28,45,41,37,30,27,25,58,57,54,30.48,30.21,0,0,0,0.00
2013-11-29,47,42,38,32,28,23,58,56,53,30.21,29.95,0,0,0,0.00
2013-11-30,46,41,34,30,26,19,56,54,51,30.27,30.15,0,0,0,0.00
2013-12-1,50,44,39,34,29,25,56,55,52,30.45,30.24,0,0,0,0.00
2013-12-2,48,44,38,32,28,23,57,54,50,30.45,30.18,0,0,0,0.00
2013-12-3,50,47,40,34,31,27,57,52,50,30.21,30.01,0,0,0,0.00
2013-12-4,43,39,34,30,26,21,64,59,55,30.15,29.95,0,0,0,0.00
2013-12-5,46,39,32,30,24,16,56,56,54,29.98,29.30,0,0,0,0.00
2013-12-6,39,34,29,21,18,14,55,51,47,30.18,30.01,0,0,0,0.00
2013-12-7,48,41,35,34,26,19,56,55,51,30.09,29.80,0,0,0,0.00
2013-12-8,52,50,47,37,34,32,55,54,52,29.83,29.74,0,0,0,0.00
2013-12-9,53,51,48,37,35,32,56,54,50,30.07,29.83,0,0,0,0.00
2013-12-10,52,50,48,34,33,32,52,50,48,30.09,30.03,0,0,0,0.00
2013-12-11,53,49,42,34,31,25,51,49,47,30.12,29.92,0,0,0,0.00
2013-12-12,54,51,45,37,34,25,56,53,42,29.92,29.80,0,0,0,0.00
2013-12-13,55,51,44,39,35,27,56,54,51,29.80,29.56,0,0,0,0.00
2013-12-14,52,46,40,34,30,23,53,51,47,29.74,29.33,0,0,0,0.00
2013-12-15,49,44,39,34,29,27,58,56,51,29.68,29.36,0,0,0,0.00
2013-12-16,47,42,40,32,28,25,57,56,54,29.74,29.33,0,0,0,0.00
2013-12-17,46,41,36,28,25,23,55,52,49,29.89,29.59,0,0,0,0.00
2013-12-18,51,47,43,34,30,23,52,49,43,29.59,28.65,0,0,0,0.00
2013-12-19,45,39,36,25,23,21,57,52,42,29.30,28.68,0,0,0,0.00
2013-12-20,50,44,38,34,28,23,55,52,49,29.56,29.18,0,0,0,0.00
2013-12-21,48,44,40,32,29,25,56,53,50,29.36,29.12,0,0,0,0.00
2013-12-22,42,39,37,25,24,21,54,52,50,29.36,29.15,0,0,0,0.00
2013-12-23,48,41,36,34,25,21,56,53,51,29.36,28.23,0,0,0,0.00
2013-12-24,48,42,39,34,24,19,55,47,38,28.29,28.15,0,0,0,0.00
2013-12-31,43,41,39,28,26,25,55,54,53,29.18,29.15,0,0,0,0.00
2014-1-1,46,42,38,30,27,23,57,55,53,29.18,28.59,0,0,0,0.00
2014-1-2,48,43,40,34,29,25,57,55,52,29.03,28.59,0,0,0,0.00